Location: Augsburg
(48.3836°N, 10.8929°E)
Time: 01:01:13
(UTC+01:00)

ISS - Pass Details

Date: 13 November 2017
Orbit: 401 x 407 km, 51.6° (Epoch: 25 November)

Event Time Altitude Azimuth Distance (km) Brightness Sun altitude
Exits shadow 05:02:56 44° 71° (ENE) 565 -2.8 -22.9°
Drops below altitude 10° 05:05:24 10° 97° (E) 1,454 0.1 -22.5°
Sets 05:07:30 0° 101° (E) 2,312 1.5 -22.1°
